Paso Robles, CA

12:41 PM PDT on July 25, 2017 (GMT -0700)
Paso Robles Municipal

Weather History for KPRB - May, 2013

Change the Weather History Date:

Sunday, May 26, 2013

  Actual Average Record
Temperature  
Mean Temperature 66 °F 65 °F  
Max Temperature 82 °F 83 °F 103 °F (1974)
Min Temperature 49 °F 48 °F 36 °F (1980)
Degree Days  
Heating Degree Days 0 2  
Month to date heating degree days 35 98  
Since 1 July heating degree days 2383 2810  
Cooling Degree Days 1 3  
Month to date cooling degree days 79 44  
Year to date cooling degree days 108 53  
Growing Degree Days 14 (Base 50)    
Moisture  
Dew Point 46 °F    
Average Humidity 59    
Maximum Humidity 93    
Minimum Humidity 25    
Precipitation  
Precipitation 0.00 in 0.00 in 0.02 in (2010)
Month to date precipitation 0.05 0.24  
Year to date precipitation 1.46 8.75  
Since 1 July precipitation 4.67  
Sea Level Pressure  
Sea Level Pressure 30.05 in    
Wind  
Wind Speed 12 mph (NNW)    
Max Wind Speed 23 mph    
Max Gust Speed 26 mph    
Visibility 10 miles    
Events      
T = Trace of Precipitation, MM = Missing Value Source: NWS Daily Summary

Daily Weather History Graph

Daily Weather History Graph

Search for Another Location

Airport or City:

Trip Planner

Search our weather history database for the weather conditions in past years. The results will help you decide how hot, cold, wet, or windy it might be!

Date:

Astronomy

May. 26, 2013 Rise Set
Actual Time 5:50 AM PDT 8:09 PM PDT
Civil Twilight 5:21 AM PDT 8:38 PM PDT
Nautical Twilight 4:45 AM PDT 9:14 PM PDT
Astronomical Twilight 4:06 AM PDT 9:53 PM PDT
Moon 10:02 PM PDT (5/26) 7:24 AM PDT (5/26)
Length of Visible Light 15h 17m
Length of Day
14h 18m
Waning Gibbous, 96% of the Moon is Illuminated
May 26
Waning Gibbous
May 31
Last Quarter
Jun 8
New
Jun 16
First Quarter
Jun 23
Full

Hourly Weather History & Observations

Time (PDT) Temp. Dew Point Humidity Pressure Visibility Wind Dir Wind Speed Gust Speed Precip Events Conditions
12:53 AM 51.1 °F 45.0 °F 80% 30.04 in 10.0 mi NW 17.3 mph - N/A   Clear
1:53 AM 50.0 °F 45.0 °F 83% 30.04 in 10.0 mi NNW 12.7 mph - N/A   Clear
2:53 AM 50.0 °F 45.0 °F 83% 30.04 in 10.0 mi NW 8.1 mph 18.4 mph N/A   Clear
3:53 AM 48.9 °F 45.0 °F 86% 30.05 in 10.0 mi NW 12.7 mph - N/A   Clear
4:53 AM 48.9 °F 46.0 °F 90% 30.05 in 10.0 mi NNW 16.1 mph - N/A   Clear
5:35 AM 50.0 °F 46.4 °F 87% 30.06 in 10.0 mi NNW 16.1 mph - N/A   Partly Cloudy
5:53 AM 50.0 °F 46.0 °F 86% 30.06 in 10.0 mi NNW 17.3 mph - N/A   Scattered Clouds
6:03 AM 50.0 °F 46.4 °F 87% 30.07 in 10.0 mi NW 13.8 mph - N/A   Mostly Cloudy
6:53 AM 52.0 °F 46.0 °F 80% 30.07 in 10.0 mi NNW 12.7 mph - N/A   Mostly Cloudy
7:02 AM 51.8 °F 46.4 °F 82% 30.08 in 10.0 mi NNW 11.5 mph - N/A   Scattered Clouds
7:53 AM 55.0 °F 46.0 °F 72% 30.08 in 10.0 mi NNW 10.4 mph - N/A   Scattered Clouds
8:53 AM 57.9 °F 46.0 °F 65% 30.09 in 10.0 mi NNW 11.5 mph - N/A   Clear
9:53 AM 63.0 °F 46.9 °F 56% 30.09 in 10.0 mi North 6.9 mph - N/A   Clear
10:53 AM 68.0 °F 46.9 °F 47% 30.08 in 10.0 mi NNW 9.2 mph - N/A   Clear
11:53 AM 71.1 °F 46.0 °F 41% 30.07 in 10.0 mi NW 4.6 mph - N/A   Clear
12:53 PM 73.9 °F 44.1 °F 34% 30.04 in 10.0 mi NE 5.8 mph - N/A   Clear
1:53 PM 75.9 °F 44.1 °F 32% 30.03 in 10.0 mi Variable 4.6 mph - N/A   Clear
2:53 PM 78.1 °F 44.1 °F 30% 30.01 in 10.0 mi West 3.5 mph - N/A   Clear
3:53 PM 81.0 °F 43.0 °F 26% 30.00 in 10.0 mi North 8.1 mph - N/A   Clear
4:53 PM 81.0 °F 41.0 °F 24% 29.99 in 10.0 mi NNW 13.8 mph 18.4 mph N/A   Clear
5:53 PM 80.1 °F 41.0 °F 25% 29.99 in 10.0 mi NNW 13.8 mph - N/A   Clear
6:53 PM 73.9 °F 46.0 °F 37% 30.01 in 10.0 mi WNW 16.1 mph - N/A   Clear
7:53 PM 69.1 °F 48.0 °F 47% 30.01 in 10.0 mi NW 20.7 mph - N/A   Clear
8:53 PM 64.9 °F 48.0 °F 54% 30.04 in 10.0 mi NW 16.1 mph 26.5 mph N/A   Clear
9:53 PM 61.0 °F 48.0 °F 62% 30.07 in 10.0 mi NW 9.2 mph - N/A   Clear
10:53 PM 57.9 °F 48.0 °F 70% 30.08 in 10.0 mi NW 12.7 mph - N/A   Clear
11:53 PM 55.9 °F 48.0 °F 75% 30.09 in 10.0 mi NW 13.8 mph - N/A   Clear